This demonstration page uses our WeatherBlox Daily Observations layout. Learn more.

Left ArrowRight Arrow

Hourly Observations for January 7, 2022

Temp ( °F °C ) Dew Point ( °F °C ) Humidity (%) Winds ( mph kmh ) Pressure ( in mb ) Visibility ( mi km ) Precip ( " mm )
12:53 am 00:53 Mostly Cloudy -2 -18.9 -8 -22.2 75 75 Calm 29.74 1007 10 16 0.00 0.00
1:53 am 01:53 Cloudy -1 -18.3 -7 -21.7 75 75 Calm 29.69 1005 10 16 0.00 0.00
2:53 am 02:53 Partly Cloudy -1 -18.3 -7 -21.7 75 75 Calm 29.66 1004 10 16 0.00 0.00
3:53 am 03:53 Mostly Cloudy 0 -17.8 -6 -21.1 76 76 Calm 29.62 1003 10 16 0.00 0.00
4:53 am 04:53 Cloudy 1 -17.2 -5 -20.6 75 75 NE 6 9 29.57 1001 10 16 0.00 0.00
5:53 am 05:53 Cloudy 2 -16.7 -3 -19.4 80 80 ENE 9 15 29.52 1000 10 16 0.00 0.00
6:53 am 06:53 Cloudy 3 -16.1 -1 -18.3 83 83 ENE 10 17 29.47 998 10 16 0.00 0.00
7:53 am 07:53 Mostly Cloudy 4 -15.6 -1 -18.3 80 80 ENE 10 17 29.45 997 10 16 0.00 0.00
8:53 am 08:53 Mostly Sunny 5 -15 0 -17.8 79 79 E 9 15 29.43 997 10 16 0.00 0.00
9:53 am 09:53 Sunny 6 -14.4 1 -17.2 79 79 NE 6 9 29.42 996 10 16 0.00 0.00
10:53 am 10:53 Cloudy 7 -13.9 2 -16.7 80 80 ENE 5 7 29.41 996 10 16 0.00 0.00
11:53 am 11:53 Cloudy 8 -13.3 3 -16.1 80 80 Calm 29.36 994 10 16 0.00 0.00
12:53 pm 12:53 Mostly Cloudy 10 -12.2 5 -15 80 80 Calm 29.35 994 10 16 0.00 0.00
1:53 pm 13:53 Mostly Cloudy 10 -12.2 4 -15.6 76 76 WSW 5 7 29.30 992 10 16 0.00 0.00
2:53 pm 14:53 Mostly Cloudy 12 -11.1 5 -15 73 73 Calm 29.28 992 10 16 0.00 0.00
3:53 pm 15:53 Partly Cloudy 15 -9.4 9 -12.8 77 77 NE 6 9 29.30 992 10 16 0.00 0.00
4:53 pm 16:53 Clear 13 -10.6 8 -13.3 81 81 S 6 9 29.30 992 10 16 0.00 0.00
5:53 pm 17:53 Partly Cloudy 13 -10.6 7 -13.9 77 77 WNW 10 17 29.29 992 10 16 0.00 0.00
6:53 pm 18:53 Mostly Clear 11 -11.7 6 -14.4 81 81 WNW 13 20 29.33 993 10 16 0.00 0.00
7:53 pm 19:53 Clear 3 -16.1 -2 -18.9 79 79 NW 17 28 29.42 996 10 16 0.00 0.00
8:06 pm 20:06 Partly Cloudy 2 -16.7 -3 -19.4 80 80 WNW 14 22 29.56 1001 10 16 0.00 0.00
8:14 pm 20:14 Mostly Cloudy 2 -16.7 -3 -19.4 80 80 WNW 13 20 29.57 1001 9 14 0.00 0.00
8:21 pm 20:21 Mostly Cloudy 2 -16.7 -3 -19.4 80 80 WNW 16 26 29.58 1002 7 11 0.00 0.00
8:53 pm 20:53 Cloudy with Haze 2 -16.7 -3 -19.4 80 80 NW 16 26 29.49 999 3 5 0.00 0.00
9:53 pm 21:53 Cloudy 0 -17.8 -6 -21.1 76 76 WNW 21 33 29.58 1002 7 11 0.00 0.00
10:53 pm 22:53 Cloudy -2 -18.9 -8 -22.2 75 75 WNW 15 24 29.65 1004 9 14 0.00 0.00
11:30 pm 23:30 Cloudy with Haze -2 -18.9 -7 -21.7 79 79 WNW 13 20 29.83 1010 5 8 0.00 0.00
11:53 pm 23:53 Cloudy -2 -18.9 -8 -22.2 75 75 WNW 10 17 29.72 1006 10 16 0.00 0.00

Powered by AerisWeather